Location: El Frío
(10.0713°N, 67.9111°W)
Time: 09:20:16
(UTC+00:00)

Resurs 01 Rocket - Pass Details

Date: 11 December 2025
Orbit: 626 x 637 km, 97.7° (Epoch: 15 January)

Event Time Altitude Azimuth Distance (km) Brightness Sun altitude
Rises 23:38:06 0° 157° (SSE) 2,926 5.0 -20.6°
Reaches altitude 10° 23:40:22 10° 151° (SSE) 2,017 4.1 -21.1°
Enters shadow 23:42:23 25° 138° (SE) 1,275 2.9 -21.6°
